Saint Francisville, IL

1:40 PM CST on February 06, 2016 (GMT -0600)
Mount Carmel Municipal

Weather History for KAJG - January, 2014

Change the Weather History Date:

Wednesday, January 22, 2014

  Actual Average (KLWV) Record (KLWV)
Temperature  
Mean Temperature 16 °F 31 °F  
Max Temperature 26 °F 39 °F 59 °F (1999)
Min Temperature 5 °F 23 °F -1 °F (2011)
Degree Days  
Heating Degree Days 50 34  
Month to date heating degree days 748  
Since 1 July heating degree days 2547  
Cooling Degree Days 0 0  
Month to date cooling degree days 0  
Year to date cooling degree days 0  
Moisture  
Dew Point 11 °F    
Average Humidity 77    
Maximum Humidity 92    
Minimum Humidity 63    
Precipitation  
Precipitation 0.00 in 0.05 in 0.78 in (1973)
Month to date precipitation 1.83  
Year to date precipitation 1.83  
Sea Level Pressure  
Sea Level Pressure 30.14 in    
Wind  
Wind Speed 6 mph (SW)    
Max Wind Speed 20 mph    
Max Gust Speed 29 mph    
Visibility 9 miles    
Events Snow    
T = Trace of Precipitation, MM = Missing Value Source: NWS Daily Summary

Daily Weather History Graph

Daily Weather History Graph

Search for Another Location

Airport or City:

Trip Planner

Search our weather history database for the weather conditions in past years. The results will help you decide how hot, cold, wet, or windy it might be!

Date:

Astronomy

Jan. 22, 2014 Rise Set
Actual Time 7:03 AM CST 5:01 PM CST
Civil Twilight 6:35 AM CST 5:30 PM CST
Nautical Twilight 6:03 AM CST 6:02 PM CST
Astronomical Twilight 5:31 AM CST 6:34 PM CST
Moon 11:28 PM CST (1/22) 10:09 AM CST (1/22)
Length of Visible Light 10h 54m
Length of Day
9h 57m
Waning Gibbous, 65% of the Moon is Illuminated
Jan 22
Waning Gibbous
Jan 23
Last Quarter
Jan 30
New
Feb 6
First Quarter
Feb 14
Full

Hourly Weather History & Observations

Time (CST) Temp. Windchill Dew Point Humidity Pressure Visibility Wind Dir Wind Speed Gust Speed Precip Events Conditions
12:15 AM 8.6 °F - 3.2 °F 79% 30.27 in 10.0 mi Calm Calm - N/A   Clear
12:35 AM 6.8 °F - 3.2 °F 85% 30.27 in 10.0 mi Calm Calm - N/A   Clear
12:55 AM 6.8 °F - 3.2 °F 85% 30.26 in 10.0 mi Calm Calm - N/A   Clear
1:15 AM 8.6 °F - 3.2 °F 79% 30.25 in 10.0 mi Calm Calm - N/A   Clear
1:35 AM 8.6 °F - 3.2 °F 79% 30.25 in 10.0 mi Calm Calm - N/A   Clear
1:55 AM 6.8 °F - 3.2 °F 85% 30.24 in 10.0 mi Calm Calm - N/A   Clear
2:15 AM 5.0 °F - 3.2 °F 92% 30.23 in 10.0 mi Calm Calm - N/A   Clear
2:35 AM 6.8 °F - 3.2 °F 85% 30.22 in 10.0 mi Calm Calm - N/A   Clear
2:55 AM 6.8 °F - 3.2 °F 85% 30.22 in 10.0 mi Calm Calm - N/A   Clear
3:15 AM 8.6 °F - 3.2 °F 79% 30.21 in 10.0 mi Calm Calm - N/A   Clear
3:35 AM 8.6 °F - 3.2 °F 79% 30.19 in 10.0 mi Calm Calm - N/A   Clear
3:55 AM 6.8 °F -0.1 °F 3.2 °F 85% 30.18 in 10.0 mi South 3.5 mph - N/A   Clear
4:15 AM 6.8 °F -0.1 °F 3.2 °F 85% 30.18 in 10.0 mi South 3.5 mph - N/A   Mostly Cloudy
4:35 AM 8.6 °F 0.1 °F 3.2 °F 79% 30.17 in 10.0 mi SE 4.6 mph - N/A   Overcast
4:55 AM 10.4 °F - 5.0 °F 79% 30.15 in 10.0 mi Calm Calm - N/A   Overcast
5:15 AM 10.4 °F - 5.0 °F 79% 30.16 in 10.0 mi Calm Calm - N/A   Overcast
5:35 AM 10.4 °F 4.0 °F 5.0 °F 79% 30.16 in 10.0 mi SSE 3.5 mph - N/A   Overcast
5:55 AM 10.4 °F -0.4 °F 5.0 °F 79% 30.16 in 10.0 mi SSE 6.9 mph - N/A   Overcast
6:15 AM 10.4 °F 0.8 °F 5.0 °F 79% 30.15 in 10.0 mi SSE 5.8 mph - N/A   Mostly Cloudy
6:35 AM 10.4 °F -0.4 °F 5.0 °F 79% 30.15 in 10.0 mi SSE 6.9 mph - N/A   Mostly Cloudy
6:55 AM 10.4 °F -0.4 °F 6.8 °F 85% 30.16 in 10.0 mi SSE 6.9 mph - N/A   Overcast
7:15 AM 12.2 °F -0.2 °F 6.8 °F 79% 30.15 in 10.0 mi SSE 9.2 mph - N/A   Overcast
7:35 AM 12.2 °F -0.2 °F 6.8 °F 79% 30.16 in 10.0 mi South 9.2 mph - N/A   Overcast
7:55 AM 12.2 °F 0.7 °F 6.8 °F 79% 30.15 in 10.0 mi SSW 8.1 mph - N/A   Overcast
8:15 AM 12.2 °F -0.2 °F 8.6 °F 85% 30.15 in 10.0 mi South 9.2 mph - N/A   Overcast
8:35 AM 14.0 °F 2.0 °F 8.6 °F 79% 30.14 in 10.0 mi South 9.2 mph - N/A   Overcast
8:55 AM 14.0 °F 1.2 °F 8.6 °F 79% 30.14 in 10.0 mi SSW 10.4 mph - N/A   Overcast
9:15 AM 14.0 °F 1.2 °F 8.6 °F 79% 30.14 in 10.0 mi South 10.4 mph - N/A   Overcast
9:35 AM 14.0 °F -0.2 °F 8.6 °F 79% 30.14 in 10.0 mi SSW 12.7 mph - N/A   Overcast
9:55 AM 15.8 °F 2.1 °F 8.6 °F 73% 30.14 in 10.0 mi SSW 12.7 mph 18.4 mph N/A   Overcast
10:15 AM 15.8 °F 2.1 °F 8.6 °F 73% 30.13 in 10.0 mi SSW 12.7 mph - N/A   Overcast
10:35 AM 17.6 °F 5.0 °F 8.6 °F 68% 30.12 in 10.0 mi South 11.5 mph - N/A   Overcast
10:55 AM 17.6 °F 3.2 °F 10.4 °F 73% 30.10 in 10.0 mi South 15.0 mph - N/A   Overcast
11:15 AM 17.6 °F 3.7 °F 10.4 °F 73% 30.09 in 10.0 mi SSW 13.8 mph 17.3 mph N/A   Overcast
11:40 AM 19.4 °F 6.0 °F 10.4 °F 68% 30.08 in 10.0 mi SSW 13.8 mph - N/A   Overcast
11:55 AM 19.4 °F 5.5 °F 10.4 °F 68% 30.07 in 10.0 mi SSW 15.0 mph - N/A   Overcast
12:15 PM 19.4 °F 6.6 °F 12.2 °F 74% 30.06 in 10.0 mi SSW 12.7 mph - N/A   Overcast
12:35 PM 19.4 °F 6.6 °F 12.2 °F 74% 30.05 in 10.0 mi SW 12.7 mph - N/A   Overcast
12:55 PM 21.2 °F 7.8 °F 12.2 °F 68% 30.05 in 10.0 mi SSW 15.0 mph - N/A   Overcast
1:15 PM 21.2 °F 8.3 °F 14.0 °F 74% 30.04 in 10.0 mi SW 13.8 mph - N/A Snow Light Snow
1:35 PM 21.2 °F 7.8 °F 14.0 °F 74% 30.03 in 5.0 mi SW 15.0 mph - N/A Snow Light Snow
1:55 PM 21.2 °F 9.5 °F 15.8 °F 80% 30.04 in 5.0 mi SW 11.5 mph - N/A Snow Light Snow
2:15 PM 23.0 °F 10.6 °F 15.8 °F 74% 30.03 in 7.0 mi SW 13.8 mph - N/A Snow Light Snow
2:35 PM 23.0 °F 10.6 °F 15.8 °F 74% 30.03 in 7.0 mi WSW 13.8 mph - N/A Snow Light Snow
2:55 PM 23.0 °F 11.7 °F 17.6 °F 80% 30.04 in 7.0 mi SW 11.5 mph - N/A Snow Light Snow
3:15 PM 23.0 °F 12.4 °F 17.6 °F 80% 30.03 in 10.0 mi WSW 10.4 mph - N/A   Overcast
3:35 PM 23.0 °F 11.7 °F 17.6 °F 80% 30.03 in 4.0 mi WSW 11.5 mph - N/A Snow Light Snow
3:55 PM 24.8 °F 14.0 °F 17.6 °F 74% 30.03 in 10.0 mi WSW 11.5 mph - N/A Snow Light Snow
4:15 PM 23.0 °F 11.7 °F 17.6 °F 80% 30.05 in 10.0 mi WSW 11.5 mph - N/A   Clear
4:35 PM 23.0 °F 13.1 °F 19.4 °F 86% 30.06 in 10.0 mi WSW 9.2 mph - N/A   Mostly Cloudy
4:55 PM 24.8 °F 15.3 °F 19.4 °F 80% 30.07 in 10.0 mi West 9.2 mph - N/A   Overcast
5:15 PM 24.8 °F 15.3 °F 19.4 °F 80% 30.07 in 10.0 mi West 9.2 mph - N/A   Overcast
5:35 PM 26.6 °F 16.8 °F 17.6 °F 69% 30.09 in 10.0 mi West 10.4 mph - N/A   Overcast
5:55 PM 26.6 °F 14.3 °F 17.6 °F 69% 30.09 in 10.0 mi WNW 16.1 mph - N/A   Overcast
6:15 PM 24.8 °F 14.0 °F 17.6 °F 74% 30.10 in 10.0 mi WNW 11.5 mph - N/A Snow Light Snow
6:35 PM 24.8 °F 15.3 °F 17.6 °F 74% 30.10 in 10.0 mi West 9.2 mph - N/A   Overcast
6:55 PM 24.8 °F 16.1 °F 17.6 °F 74% 30.11 in 10.0 mi West 8.1 mph - N/A   Overcast
7:15 PM 24.8 °F 16.1 °F 17.6 °F 74% 30.11 in 10.0 mi West 8.1 mph - N/A   Overcast
7:35 PM 24.8 °F 16.1 °F 17.6 °F 74% 30.12 in 10.0 mi West 8.1 mph - N/A   Overcast
7:55 PM 24.8 °F 16.1 °F 17.6 °F 74% 30.12 in 10.0 mi West 8.1 mph - N/A   Overcast
8:15 PM 24.8 °F 14.6 °F 17.6 °F 74% 30.13 in 10.0 mi West 10.4 mph - N/A   Overcast
8:35 PM 21.2 °F 6.0 °F 17.6 °F 86% 30.15 in 1.0 mi NNW 19.6 mph 28.8 mph N/A Snow Light Snow
8:55 PM 21.2 °F 8.3 °F 17.6 °F 86% 30.16 in 3.0 mi NNW 13.8 mph - N/A Snow Light Snow
9:15 PM 21.2 °F 6.8 °F 15.8 °F 80% 30.16 in 7.0 mi NW 17.3 mph 21.9 mph N/A Snow Light Snow
9:35 PM 21.2 °F 7.8 °F 12.2 °F 68% 30.17 in 10.0 mi NNW 15.0 mph 23.0 mph N/A   Overcast
9:55 PM 21.2 °F 8.3 °F 10.4 °F 63% 30.17 in 10.0 mi NW 13.8 mph 19.6 mph N/A   Overcast
10:15 PM 21.2 °F 9.5 °F 10.4 °F 63% 30.18 in 10.0 mi NW 11.5 mph 19.6 mph N/A   Overcast
10:35 PM 19.4 °F 5.5 °F 10.4 °F 68% 30.19 in 10.0 mi NNW 15.0 mph 19.6 mph N/A   Overcast
10:55 PM 19.4 °F 7.2 °F 8.6 °F 63% 30.20 in 10.0 mi NNW 11.5 mph - N/A   Overcast
11:15 PM 19.4 °F 5.0 °F 8.6 °F 63% 30.21 in 10.0 mi NW 16.1 mph 23.0 mph N/A   Overcast
11:35 PM 17.6 °F 2.7 °F 8.6 °F 68% 30.22 in 10.0 mi NNW 16.1 mph - N/A   Overcast
11:55 PM 17.6 °F 1.3 °F 8.6 °F 68% 30.24 in 10.0 mi NW 19.6 mph 27.6 mph N/A   Overcast